Wind_Speed
17 17 17 16 16 15 15 15 15 15 14 15 15 15 15 14 15 15 15 15 15 15 15 16 16 17 17 18 19 19 19 20 20 20 21 21 20 20
19 18 18 17 17 17 17 17 16 16 16 16 16 16 16 16 16 16 15 15 16 16 16 17 17 18 19 19 20 19 19 20 20 21 21 21 21 22
19 19 18 18 18 18 17 18 18 18 17 17 17 17 17 17 16 16 16 16 17 17 17 17 17 18 18 19 20 20 20 19 20 21 21 22 22 22
19 19 19 18 18 18 18 18 19 19 19 18 18 18 18 18 18 18 17 18 18 18 18 18 17 18 18 19 20 20 20 20 20 21 21 21 22 23
21 20 19 18 18 18 18 18 18 18 19 19 19 18 18 18 18 18 18 19 19 19 19 18 18 18 18 19 19 19 19 20 20 20 20 21 22 22
21 20 20 19 19 18 18 18 18 19 19 19 20 20 19 19 19 19 19 20 20 20 19 19 18 19 19 19 19 19 19 20 20 21 21 21 22 22
20 20 20 20 19 19 19 19 20 20 20 20 21 21 21 21 21 21 21 21 21 21 21 20 20 20 20 20 20 19 20 20 21 21 21 21 22 22
21 20 20 20 20 19 20 20 21 21 21 21 22 22 22 22 22 22 22 21 21 22 22 21 21 20 21 21 21 21 21 21 21 21 21 21 22 22
21 21 21 20 20 19 19 20 21 21 22 22 22 22 22 22 23 23 22 22 22 22 22 22 21 21 21 21 21 20 20 20 20 21 22 22 22 23
21 21 22 21 20 20 20 20 20 21 21 22 22 22 22 22 22 22 23 23 22 22 21 20 20 21 21 21 21 21 21 21 22 22 22 23 23 24
20 20 21 21 20 20 20 20 20 21 21 22 22 22 22 22 22 23 22 22 22 22 21 20 19 20 20 20 20 21 21 21 22 22 22 23 23 23
21 21 21 21 20 20 21 21 21 21 22 22 22 22 22 23 23 23 23 22 22 21 21 21 20 20 20 20 20 21 21 21 22 22 22 22 23 23
21 21 20 20 20 20 20 20 21 22 22 22 22 23 23 23 24 23 23 23 23 22 22 22 22 21 21 21 21 21 22 22 22 22 22 22 22 22
22 21 21 21 20 20 20 21 21 22 22 22 22 23 23 23 24 24 23 24 23 23 22 23 22 22 22 22 22 22 22 22 22 22 22 23 23 22
24 23 22 22 22 22 22 22 22 23 23 23 23 23 24 24 24 24 23 24 24 23 23 23 23 22 22 22 22 23 23 23 23 23 23 23 23 22
25 24 24 24 24 23 23 24 24 24 24 24 25 25 25 25 25 24 24 24 24 24 24 24 23 23 23 23 23 23 24 24 24 24 23 23 23 23
25 25 25 25 25 25 25 25 25 26 25 25 25 25 25 25 24 24 24 24 24 24 24 25 25 25 24 24 23 23 24 24 25 25 25 24 24 24
27 27 27 27 27 27 27 27 26 26 26 26 26 26 25 25 25 25 25 24 24 25 25 25 25 25 25 25 25 25 25 25 25 25 26 25 24 24
28 28 28 28 28 28 27 27 26 26 26 27 27 26 26 25 26 26 25 25 25 25 25 26 25 25 25 25 25 25 25 25 25 25 25 25 25 24
28 27 28 28 28 28 27 27 26 27 26 26 26 25 26 26 26 25 25 25 25 25 25 25 25 25 24 24 24 24 25 26 26 26 26 26 26 26
27 28 28 28 29 28 27 27 27 26 26 26 25 25 25 25 25 25 25 25 25 25 25 25 25 25 25 25 24 24 25 25 26 26 26 26 27 27
26 27 26 26 26 26 26 27 27 26 26 26 26 25 25 25 24 24 24 24 24 24 24 24 24 24 24 24 24 24 25 25 26 26 27 27 27 26
25 25 25 25 25 25 26 26 26 26 26 26 26 25 24 24 24 24 24 24 24 24 24 24 24 24 24 24 24 24 24 25 25 26 27 27 27 27
Wind_Direction
276 274 274 276 277 277 278 279 281 282 282 278 278 279 283 284 285 287 287 288 286 287 286 282 280 276 272 269 268 268 268 267 265 265 264 263 263 263
274 273 275 276 276 276 276 277 280 282 281 276 277 280 281 281 284 285 285 286 286 285 285 283 280 276 274 273 272 272 272 271 270 267 266 265 264 263
272 273 275 274 273 275 276 277 279 279 279 276 276 280 280 281 282 282 283 284 286 286 286 285 282 279 277 275 275 275 273 272 269 267 265 263 264 263
268 271 275 276 274 275 276 277 278 279 277 275 275 277 279 280 281 283 283 283 285 285 285 284 282 283 281 279 278 276 274 273 270 269 268 266 266 266
266 267 270 273 274 275 276 278 279 278 277 277 277 277 279 279 279 281 282 283 284 283 282 281 280 281 280 278 278 277 275 274 272 272 271 269 268 267
265 264 265 269 270 273 275 276 277 277 278 280 281 278 277 278 280 280 281 283 283 281 281 281 280 281 280 278 278 277 275 274 273 273 271 268 267 268
265 265 266 268 269 270 272 275 277 278 278 279 281 280 279 280 280 280 281 282 282 281 279 279 280 280 280 278 278 276 274 273 273 272 271 270 270 269
265 264 266 267 269 271 274 277 278 278 279 280 280 280 279 280 281 282 284 285 284 281 279 278 279 280 280 277 277 277 275 274 272 271 270 270 271 270
264 262 265 268 270 272 277 279 279 279 280 281 281 281 281 281 282 282 283 283 284 283 280 278 277 280 281 279 279 278 276 275 273 271 271 271 272 272
263 261 263 266 269 273 276 279 282 282 281 281 282 283 281 281 283 284 283 283 282 281 280 279 278 278 280 280 278 276 274 273 272 271 272 273 274 273
263 262 264 265 268 271 273 278 282 284 284 282 282 282 281 281 282 283 283 282 281 279 278 277 276 277 278 279 279 277 276 275 273 273 273 273 274 274
259 260 262 264 267 271 274 277 280 283 284 284 282 281 279 280 282 283 284 283 280 278 277 276 275 275 276 277 279 280 278 277 275 274 274 274 275 275
258 258 261 263 265 270 274 276 280 281 282 284 283 282 281 281 281 282 283 282 280 280 277 275 274 275 275 276 277 279 279 278 276 275 275 275 276 277
257 259 260 261 265 269 272 276 279 282 284 284 284 283 282 281 280 280 281 281 280 280 277 275 275 275 274 275 277 279 278 277 275 275 277 277 279 278
257 259 260 261 264 268 271 276 279 281 285 284 283 282 281 281 280 279 280 280 280 279 277 275 275 275 276 277 277 277 277 277 276 277 278 279 279 278
256 258 260 262 264 268 271 276 278 281 282 283 282 281 281 281 282 279 280 281 281 279 277 277 276 276 277 278 277 276 275 273 275 276 278 280 280 278
258 259 260 262 265 267 271 275 278 280 280 280 281 282 281 280 280 280 280 280 280 279 278 278 279 277 276 276 276 276 275 274 274 275 277 279 280 280
259 260 262 265 266 268 269 272 276 278 278 278 279 280 281 279 278 278 279 280 280 279 279 280 279 277 276 275 275 275 275 275 275 275 276 279 279 280
259 261 262 264 267 266 268 271 274 277 278 279 279 278 278 278 279 279 279 279 279 279 279 280 279 277 276 276 276 275 275 276 277 277 277 278 279 280
259 262 263 263 264 265 267 269 272 276 277 278 278 277 277 278 279 279 279 279 278 278 278 280 279 278 277 276 275 274 275 276 275 276 277 278 279 280
260 261 264 264 263 264 265 267 271 274 275 276 277 277 277 278 278 278 278 277 277 277 277 279 280 279 279 277 277 277 277 277 277 277 277 279 279 280
258 259 261 263 262 262 264 267 270 272 275 276 276 276 276 277 278 279 278 276 276 277 278 279 280 280 280 278 278 278 279 280 279 279 279 279 280 280
256 258 261 263 263 262 264 267 269 271 273 274 275 275 275 275 277 279 279 277 277 278 279 280 281 280 280 279 279 279 279 279 279 280 280 280 280 281
Height
5836 5836 5835 5834 5834 5833 5832 5831 5830 5829 5828 5826 5825 5824 5822 5821 5820 5819 5817 5816 5815 5813 5812 5811 5811 5810 5810 5809 5810 5809 5810 5810 5810 5810 5811 5811 5811 5811
5830 5830 5829 5829 5828 5828 5827 5826 5825 5824 5823 5822 5821 5819 5818 5817 5816 5814 5813 5812 5810 5809 5808 5806 5806 5805 5804 5804 5804 5804 5804 5804 5804 5805 5805 5805 5806 5806
5824 5824 5824 5823 5822 5822 5821 5821 5820 5819 5818 5817 5816 5815 5813 5812 5811 5810 5808 5807 5806 5804 5803 5802 5801 5800 5799 5799 5799 5799 5799 5798 5799 5799 5799 5799 5799 5800
5819 5818 5818 5818 5817 5816 5816 5815 5814 5813 5813 5812 5811 5809 5808 5807 5806 5805 5803 5802 5801 5800 5799 5797 5796 5795 5794 5794 5794 5793 5793 5792 5792 5793 5793 5793 5793 5793
5812 5812 5812 5812 5811 5811 5810 5809 5808 5808 5807 5806 5805 5804 5803 5802 5801 5800 5798 5797 5795 5794 5793 5792 5791 5790 5789 5788 5788 5787 5787 5787 5787 5787 5786 5786 5787 5787
5805 5806 5806 5806 5806 5805 5804 5804 5803 5802 5801 5800 5800 5799 5798 5796 5795 5794 5793 5791 5790 5788 5787 5786 5785 5784 5783 5783 5782 5782 5781 5781 5780 5780 5780 5780 5780 5780
5798 5799 5799 5799 5799 5799 5798 5798 5797 5796 5795 5794 5793 5792 5791 5790 5789 5787 5786 5785 5783 5782 5781 5780 5779 5778 5777 5776 5776 5775 5775 5774 5774 5773 5773 5773 5773 5773
5792 5792 5793 5793 5793 5792 5792 5791 5791 5790 5789 5788 5787 5786 5785 5784 5782 5781 5779 5778 5777 5776 5774 5773 5773 5772 5771 5770 5769 5769 5768 5767 5767 5767 5767 5767 5767 5766
5785 5785 5786 5786 5786 5785 5785 5785 5784 5783 5782 5781 5780 5779 5778 5777 5775 5774 5772 5771 5770 5768 5767 5767 5766 5765 5764 5763 5763 5762 5762 5761 5761 5760 5760 5760 5759 5759
5778 5779 5779 5779 5779 5779 5778 5778 5777 5776 5775 5774 5773 5772 5771 5769 5768 5767 5765 5764 5763 5761 5760 5760 5759 5759 5758 5757 5756 5755 5755 5754 5754 5753 5753 5752 5752 5751
5771 5772 5772 5772 5772 5772 5771 5771 5770 5769 5768 5766 5765 5764 5763 5762 5761 5760 5759 5757 5756 5755 5754 5753 5753 5752 5752 5751 5750 5749 5748 5747 5747 5746 5746 5745 5745 5744
5764 5764 5765 5765 5765 5765 5764 5764 5763 5762 5761 5759 5758 5757 5756 5755 5754 5753 5752 5751 5750 5749 5748 5747 5746 5746 5745 5744 5743 5742 5741 5741 5740 5739 5739 5738 5737 5737
5756 5757 5757 5758 5758 5758 5757 5757 5756 5755 5754 5753 5752 5751 5749 5748 5747 5746 5745 5744 5743 5742 5741 5740 5740 5739 5738 5738 5736 5735 5735 5734 5733 5733 5732 5731 5730 5729
5749 5750 5750 5750 5751 5751 5750 5750 5749 5748 5747 5746 5745 5744 5743 5741 5740 5738 5737 5736 5735 5735 5733 5732 5732 5732 5731 5731 5730 5729 5728 5727 5726 5726 5725 5724 5723 5722
5741 5742 5743 5743 5743 5744 5743 5743 5742 5741 5740 5739 5738 5737 5735 5734 5732 5731 5730 5729 5728 5727 5726 5725 5725 5724 5724 5724 5723 5722 5721 5720 5719 5719 5718 5717 5716 5715
5733 5734 5735 5735 5736 5736 5736 5736 5735 5734 5733 5732 5730 5729 5728 5726 5725 5724 5723 5722 5721 5720 5719 5718 5717 5717 5717 5716 5716 5715 5714 5713 5712 5711 5711 5710 5709 5707
5725 5725 5726 5727 5728 5728 5728 5728 5727 5726 5725 5724 5723 5722 5720 5719 5718 5716 5715 5715 5714 5713 5712 5710 5709 5709 5709 5709 5708 5707 5706 5706 5705 5704 5703 5702 5701 5700
5716 5717 5718 5719 5719 5719 5720 5720 5719 5718 5717 5716 5715 5714 5712 5711 5710 5709 5708 5707 5706 5705 5704 5703 5702 5701 5701 5701 5700 5700 5699 5698 5697 5696 5695 5694 5694 5692
5707 5708 5709 5710 5710 5710 5711 5711 5710 5709 5708 5707 5706 5705 5704 5703 5702 5701 5700 5699 5698 5697 5696 5695 5694 5693 5693 5693 5692 5691 5691 5690 5689 5688 5687 5686 5686 5685
5699 5700 5700 5701 5701 5701 5702 5702 5701 5700 5699 5698 5697 5697 5696 5695 5694 5693 5692 5691 5690 5689 5688 5687 5686 5685 5685 5685 5684 5684 5683 5682 5681 5680 5679 5678 5678 5677
5690 5691 5692 5692 5693 5693 5693 5693 5693 5692 5691 5690 5689 5689 5688 5687 5686 5685 5684 5683 5683 5682 5681 5680 5678 5678 5677 5677 5676 5675 5674 5673 5672 5671 5670 5670 5669 5668
5681 5682 5683 5684 5684 5684 5684 5684 5684 5684 5683 5682 5681 5681 5680 5679 5678 5677 5676 5675 5675 5674 5673 5672 5671 5670 5669 5668 5668 5667 5666 5665 5664 5663 5662 5661 5660 5659
5673 5674 5675 5676 5676 5676 5676 5676 5676 5675 5675 5674 5673 5672 5672 5671 5670 5669 5668 5668 5667 5666 5665 5664 5663 5662 5662 5661 5660 5659 5658 5657 5656 5655 5654 5652 5651 5650